Wetbulb
78.72 78.24 77.23 77.45 77.08 75.79 76.74 76.35 77.79 77.45 78.23 79.04 79.07 78.94 78.54 77.00 77.21 76.59 75.91 75.48 74.96 74.36
78.70 77.91 77.14 77.56 77.71 76.62 80.21 77.55 81.08 78.11 78.58 79.23 79.48 79.97 79.59 77.72 77.21 77.75 77.24 76.68 76.16 74.81
79.12 78.83 78.39 79.24 77.91 77.82 77.92 80.15 81.33 79.67 78.71 78.73 79.42 79.65 79.09 77.85 77.79 77.60 77.47 75.69 75.82 75.24
79.42 79.39 79.01 78.32 79.81 78.80 79.92 80.54 80.60 80.39 80.45 80.05 79.68 79.47 78.90 78.23 77.58 77.22 76.69 76.12 75.85 74.79
79.86 79.50 79.10 78.80 78.86 79.73 78.91 79.55 80.48 80.78 79.63 79.90 79.47 79.42 78.57 76.96 77.12 76.42 75.74 75.74 75.66 75.02
79.29 79.46 78.68 79.05 79.23 79.39 79.61 79.67 79.46 79.73 79.88 79.19 79.24 79.25 79.24 78.54 77.77 76.78 76.51 75.91 75.01 75.16
78.66 78.67 78.87 79.28 79.44 79.09 79.77 79.84 79.53 79.67 79.36 79.35 79.56 79.04 78.79 78.24 77.68 77.24 76.62 75.59 75.94 76.19
78.26 78.42 78.88 79.50 80.06 80.56 80.48 79.67 79.98 79.72 79.95 79.87 78.94 78.16 78.80 78.59 77.96 77.10 75.48 76.46 76.64 76.90
79.85 79.44 80.95 80.91 80.46 81.25 80.63 81.13 79.81 79.42 79.27 79.38 78.06 73.12 72.82 76.90 77.73 77.35 76.49 75.79 75.99 76.63
82.13 80.29 81.22 82.44 81.98 80.56 80.35 80.83 80.48 79.51 79.85 79.30 79.04 69.51 70.17 72.87 77.37 77.21 76.67 76.66 75.76 75.61
82.96 81.01 81.33 81.74 81.68 81.13 81.07 80.48 80.51 79.91 79.96 79.82 79.12 68.22 68.63 71.38 77.16 77.23 77.22 76.16 75.27 75.25
82.13 81.97 81.19 80.79 81.07 81.25 81.07 80.50 80.46 80.08 79.81 79.82 79.34 66.43 67.19 70.84 76.16 75.86 76.18 76.71 77.08 76.33
81.96 82.17 81.20 81.23 81.23 81.37 81.31 80.24 80.04 79.36 80.03 75.63 79.84 64.17 64.62 69.87 75.77 74.61 74.76 76.64 76.96 69.39
82.06 82.13 82.02 82.17 82.11 81.42 80.56 79.68 79.44 79.00 79.96 79.28 77.87 72.79 62.34 63.22 75.60 74.56 74.88 74.57 75.45 76.99
MSLP
1011.64 1011.81 1012.06 1012.18 1012.30 1012.49 1012.62 1012.73 1012.75 1013.37 1013.86 1014.18 1014.57 1015.07 1015.27 1015.94 1016.33 1016.54 1016.82 1016.98 1017.25 1017.37
1011.00 1011.38 1011.44 1011.80 1011.98 1012.14 1012.19 1012.23 1012.36 1012.92 1013.40 1013.82 1014.19 1014.54 1014.89 1015.36 1015.72 1015.91 1016.15 1016.31 1016.59 1016.91
1010.17 1010.75 1011.12 1011.29 1011.59 1011.69 1011.86 1012.02 1012.14 1012.64 1012.97 1013.29 1013.72 1014.05 1014.50 1014.81 1015.01 1015.29 1015.56 1015.82 1016.17 1016.43
1009.15 1009.81 1010.50 1010.82 1010.82 1011.13 1011.36 1011.56 1011.85 1012.21 1012.60 1012.82 1013.22 1013.68 1014.05 1014.33 1014.62 1014.86 1015.18 1015.47 1015.66 1016.08
1008.37 1009.00 1009.44 1009.97 1010.28 1010.52 1010.72 1011.04 1011.35 1011.70 1012.18 1012.56 1012.85 1013.21 1013.66 1013.96 1014.20 1014.52 1014.72 1014.98 1015.24 1015.52
1007.52 1008.15 1008.57 1008.92 1009.41 1009.72 1010.16 1010.55 1010.85 1011.21 1011.61 1012.18 1012.51 1012.79 1013.08 1013.41 1013.69 1014.04 1014.34 1014.55 1014.82 1015.00
1006.56 1007.17 1007.70 1008.18 1008.56 1008.94 1009.35 1009.88 1010.34 1010.64 1011.05 1011.53 1011.95 1012.33 1012.64 1012.95 1013.30 1013.63 1013.90 1014.12 1014.43 1014.56
1005.59 1006.11 1006.71 1007.29 1007.77 1008.18 1008.60 1009.18 1009.69 1010.11 1010.38 1010.86 1011.31 1011.70 1012.10 1012.46 1012.83 1013.22 1013.58 1013.79 1013.96 1014.01
1004.91 1005.49 1005.96 1006.54 1007.05 1007.56 1008.05 1008.53 1009.16 1009.55 1009.90 1010.31 1010.71 1011.12 1011.60 1012.00 1012.36 1012.75 1013.05 1013.44 1013.66 1013.71
1004.33 1004.75 1005.39 1006.00 1006.69 1007.11 1007.54 1008.09 1008.64 1009.21 1009.55 1009.93 1010.30 1010.63 1011.07 1011.55 1011.82 1012.09 1012.43 1012.81 1013.10 1013.26
1004.26 1004.48 1004.77 1005.41 1006.14 1006.87 1007.30 1007.75 1008.24 1008.82 1009.31 1009.81 1010.02 1010.39 1010.75 1011.41 1011.71 1011.76 1011.95 1012.19 1012.52 1012.76
1004.12 1004.56 1004.77 1005.05 1005.51 1006.27 1007.01 1007.47 1007.87 1008.42 1009.03 1009.47 1009.96 1010.38 1010.57 1011.15 1011.53 1011.55 1011.61 1011.71 1011.89 1012.11
1003.57 1004.00 1004.51 1004.96 1005.34 1005.81 1006.50 1007.18 1007.57 1008.18 1008.65 1009.26 1009.73 1010.54 1010.87 1011.11 1011.13 1010.99 1010.98 1010.98 1011.20 1011.49
1002.89 1003.32 1003.96 1004.74 1005.22 1005.70 1006.26 1006.70 1007.21 1007.72 1008.12 1008.57 1009.13 1010.05 1010.91 1011.16 1011.12 1011.01 1010.82 1010.64 1010.84 1011.20
Wind_Speed
12 7 9 7 5 7 6 6 8 14 11 9 7 8 7 5 6 6 6 7 6 5
13 13 11 11 8 7 5 7 5 11 11 10 9 7 6 5 6 6 6 6 6 5
14 14 12 9 11 10 8 6 5 9 12 11 8 7 7 7 6 7 5 5 6 6
14 14 13 12 10 11 9 8 8 6 6 6 7 6 6 7 6 6 7 7 6 9
13 13 14 14 13 11 12 10 8 8 8 7 7 8 8 9 8 8 8 8 7 8
14 13 14 14 14 13 11 11 11 10 9 9 9 8 7 7 6 6 6 5 5 6
14 14 13 12 13 13 12 11 11 9 10 10 9 9 8 6 7 7 5 5 6 7
14 13 13 12 10 10 9 11 10 10 8 10 9 8 9 8 6 6 6 6 6 6
12 11 9 9 11 9 8 8 10 10 9 9 8 9 12 9 6 7 7 7 7 8
10 12 10 9 9 10 10 8 9 10 9 9 8 9 16 14 8 7 8 7 5 6
7 11 11 11 10 10 9 10 9 8 8 8 7 10 13 12 7 5 7 7 8 7
8 9 10 12 12 11 9 9 8 7 8 9 7 12 14 11 7 7 7 8 6 7
12 11 12 12 12 11 10 9 7 8 8 6 4 8 11 10 6 8 7 6 8 13
12 13 12 11 11 11 10 10 9 8 7 9 8 10 11 13 6 6 7 7 5 5
Wind_Direction
214 217 216 221 238 212 234 207 204 195 196 206 197 206 212 216 207 199 213 218 215 217
201 211 213 214 218 241 243 231 159 178 191 194 200 203 211 212 218 208 215 221 216 200
198 207 220 210 219 209 231 241 272 191 192 190 189 195 203 227 228 194 223 212 205 208
199 200 206 223 218 219 227 207 216 201 218 198 192 201 211 228 240 207 220 224 194 203
198 201 201 210 218 219 215 226 214 196 205 207 212 213 214 222 225 218 226 225 208 215
195 201 213 204 211 211 214 213 222 209 202 207 218 223 215 217 224 234 230 229 220 226
196 201 206 217 202 215 202 205 209 224 202 207 213 217 214 209 220 223 215 202 220 231
195 201 200 200 208 204 206 198 200 211 221 198 206 218 210 206 203 193 197 222 232 233
183 193 192 192 188 195 201 195 196 207 212 207 208 196 186 197 190 205 209 214 225 237
183 183 187 180 185 194 196 201 191 204 208 204 202 166 191 193 197 197 202 215 230 227
210 192 182 181 186 195 193 200 199 195 205 204 204 161 171 184 214 206 213 206 201 226
220 203 196 193 186 185 194 197 193 192 202 206 203 173 168 170 204 231 234 208 217 205
209 207 205 198 191 183 183 189 193 185 193 193 190 183 177 182 213 212 219 216 208 215
206 210 199 196 192 184 178 177 188 182 185 182 193 170 194 203 218 248 225 226 215 217